This is the latest recevied weather packets stored in our database for station/object N8WEL. If no packets are shown the sender has not sent any weather packets the latest 1 day(s).
| Time | Temp. | Humidity | Pressure | Rain* | Wind** | Luminosity | Snow |
|---|---|---|---|---|---|---|---|
| 1778001393 | 19.44° C | 66% | 1007.5 hPa | 0 mm | 0 m/s | - | - |
| 1778001104 | 19.44° C | 65% | 1007.6 hPa | 0 mm | 0 m/s | - | - |
| 1778000818 | 19.44° C | 66% | 1007.7 hPa | 0 mm | 0 m/s | - | - |
| 1778000516 | 20° C | 65% | 1007.7 hPa | 0 mm | 0.45 m/s, 230° | - | - |
| 1778000191 | 20° C | 64% | 1007.8 hPa | 0 mm | 0 m/s | - | - |
| 1777999778 | 20° C | 65% | 1007.9 hPa | 0 mm | 0 m/s | - | - |
| 1777999480 | 20° C | 65% | 1007.8 hPa | 0 mm | 0 m/s | - | - |
| 1777999156 | 20.56° C | 63% | 1007.9 hPa | 0 mm | 0.89 m/s, 192° | - | - |
| 1777998856 | 20.56° C | 64% | 1007.8 hPa | 0 mm | 0 m/s | - | - |
| 1777998256 | 20.56° C | 65% | 1007.8 hPa | 0 mm | 0.45 m/s, 171° | - | - |
| 1777997956 | 20.56° C | 65% | 1007.7 hPa | 0 mm | 0 m/s | - | - |
| 1777997659 | 20.56° C | 64% | 1007.8 hPa | 0 mm | 0.89 m/s, 180° | - | - |
| 1777997356 | 20.56° C | 64% | 1007.8 hPa | 0 mm | 0 m/s | - | - |
| 1777997055 | 20.56° C | 63% | 1007.7 hPa | 0 mm | 0 m/s | - | - |
| 1777996757 | 20.56° C | 64% | 1007.7 hPa | 0 mm | 0.45 m/s, 163° | - | - |
| 1777996421 | 20.56° C | 66% | 1007.8 hPa | 0 mm | 0 m/s | - | - |
| 1777996121 | 20.56° C | 65% | 1007.8 hPa | 0 mm | 0 m/s | - | - |
| 1777995821 | 20.56° C | 65% | 1007.8 hPa | 0 mm | 0 m/s | - | - |
| 1777995259 | 20° C | 69% | 1007.8 hPa | 0 mm | 0 m/s | - | - |
| 1777994961 | 19.44° C | 68% | 1007.7 hPa | 0 mm | 0.45 m/s, 163° | - | - |
| 1777994658 | 19.44° C | 69% | 1007.7 hPa | 0 mm | 0 m/s | - | - |
| 1777994358 | 18.89° C | 71% | 1007.8 hPa | 0 mm | 0 m/s | - | - |
| 1777994058 | 18.33° C | 72% | 1007.6 hPa | 0 mm | 0 m/s | - | - |
| 1777993464 | 18.33° C | 73% | 1007.5 hPa | 0 mm | 0 m/s | - | - |
| 1777993164 | 18.33° C | 74% | 1007.6 hPa | 0 mm | 0.45 m/s, 195° | - | - |
* Rain latest hour (hover to see other rain measurements)
** Current wind speed in m/s (hover to see current wind gust speed)